This is the latest recevied weather packets stored in our database for station/object KA7KDX-4. If no packets are shown the sender has not sent any weather packets the latest 10 day(s).
| Time | Temp. | Humidity | Pressure | Rain* | Wind** | Luminosity | Snow |
|---|---|---|---|---|---|---|---|
| 1777482606 | 14.44° C | 32% | 1015.7 hPa | 0 mm | - | - | - |
| 1777482306 | 13.89° C | 34% | 1015.9 hPa | 0 mm | - | - | - |
| 1777482005 | 13.89° C | 35% | 1016 hPa | 0 mm | - | - | - |
| 1777481705 | 13.89° C | 38% | 1016.1 hPa | 0 mm | - | - | - |
| 1777481405 | 13.33° C | 39% | 1016.3 hPa | 0 mm | - | - | - |
| 1777481105 | 13.33° C | 41% | 1016.4 hPa | 0 mm | - | - | - |
| 1777480805 | 13.33° C | 42% | 1016.5 hPa | 0 mm | - | - | - |
| 1777480506 | 12.78° C | 44% | 1016.6 hPa | 0 mm | - | - | - |
| 1777480206 | 12.78° C | 44% | 1016.8 hPa | 0 mm | - | - | - |
| 1777479906 | 12.22° C | 44% | 1017 hPa | 0 mm | - | - | - |
| 1777479606 | 12.22° C | 46% | 1017.1 hPa | 0 mm | - | - | - |
| 1777479306 | 11.67° C | 49% | 1017.3 hPa | 0 mm | - | - | - |
| 1777479005 | 11.67° C | 50% | 1017.4 hPa | 0 mm | - | - | - |
| 1777478705 | 11.67° C | 50% | 1017.5 hPa | 0 mm | - | - | - |
| 1777478405 | 11.67° C | 50% | 1017.5 hPa | 0 mm | - | - | - |
| 1777478105 | 11.67° C | 51% | 1017.6 hPa | 0 mm | - | - | - |
| 1777477806 | 11.11° C | 51% | 1017.7 hPa | 0 mm | - | - | - |
| 1777477506 | 11.11° C | 52% | 1017.9 hPa | 0 mm | - | - | - |
| 1777477206 | 11.11° C | 51% | 1017.7 hPa | 0 mm | - | - | - |
| 1777476906 | 11.11° C | 50% | 1017.7 hPa | 0 mm | - | - | - |
| 1777476606 | 11.67° C | 51% | 1017.6 hPa | 0 mm | - | - | - |
| 1777476305 | 11.67° C | 49% | 1017.3 hPa | 0 mm | - | - | - |
| 1777476005 | 12.22° C | 43% | 1017 hPa | 0 mm | - | - | - |
| 1777475705 | 12.22° C | 41% | 1017.1 hPa | 0 mm | - | - | - |
| 1777475405 | 11.67° C | 41% | 1017.2 hPa | 0 mm | - | - | - |
* Rain latest hour (hover to see other rain measurements)
** Current wind speed in m/s (hover to see current wind gust speed)